Regional Weather Roundup
Issued by NWS Albany, NY

Current Version | Previous Version | Graphics & Text | Print | Product List | Glossary Off
Versions: 1 2 3 4 5 6 7 8 9 10 11 12 13 14 15 16 17 18 19 20 21 22 23 24 25 26 27 28 29 30 31 32 33 34 35 36 37 38 39 40 41 42 43 44 45 46 47 48

000
ASUS41 KALY 040610
RWRALY

NEW YORK STATE HOURLY WEATHER ROUNDUP
NATIONAL WEATHER SERVICE ALBANY NY
200 AM EDT SAT JUL 04 2015

NOTE: "FAIR" INDICATES FEW OR NO CLOUDS BELOW 12,000 FEET WITH NO
SIGNIFICANT WEATHER AND/OR NO OBSTRUCTIONS TO VISIBILITY.

NYZ032-033-038>043-046>054-057>066-NYZ062>081-040700-
EAST


CITY           SKY/WX    TMP DP  RH WIND       PRES   REMARKS
ALBANY         CLOUDY    61  51  70 CALM      29.98R
GLENS FALLS    MOCLDY    56  54  93 CALM      29.98S
POUGHKEEPSIE   FAIR      62  57  83 CALM      29.97S
NEWBURGH       MOCLDY    68  59  73 VRB5      29.99S
MONTGOMERY     MOCLDY    61  58  90 CALM      29.98S
WHITE PLAINS   CLOUDY    65  60  84 CALM      29.99S
ISLIP          CLOUDY    67  58  72 E3        29.97F
NEW YORK CITY  CLOUDY    71  58  63 S6        29.97F
CENTRAL PARK   CLOUDY    71  60  68 VRB5      30.01S
$$

NYZ005>009-017-018-044>046-055-056-040700-
CENTRAL


CITY           SKY/WX    TMP DP  RH WIND       PRES   REMARKS
FULTON         CLOUDY    62  53  72 CALM      29.92F
SYRACUSE       CLOUDY    61  56  83 E6        29.92F
ROME           MOCLDY    58  51  78 SE7       29.97S
ELMIRA         CLOUDY    62  60  93 CALM      29.93F
BINGHAMTON     CLOUDY    62  56  80 SE3       29.97F
MONTICELLO     CLOUDY    61  54  77 NE3       30.01F
$$

NYZ026>034-041>043-040700-
NORTH


CITY           SKY/WX    TMP DP  RH WIND       PRES   REMARKS
WATERTOWN      MOCLDY    54  50  86 CALM      29.94F
FORT DRUM      NOT AVBL
MASSENA        MOCLDY    52  49  89 CALM      29.96R
SARANAC LAKE   CLEAR     44  43  96 CALM      29.99R
PLATTSBURGH    MOCLDY    55  52  89 W5        29.95F
$$

NYZ001>004-010>016-019>021-040700-
WEST


CITY           SKY/WX    TMP DP  RH WIND       PRES   REMARKS
NIAGARA FALLS  PTCLDY    60  47  61 NE7       29.90S
BUFFALO        MOCLDY    60  51  72 NE3       29.90F
DUNKIRK        CLOUDY    61  57  87 CALM      29.90F
JAMESTOWN      CLOUDY    61  52  72 NE3       29.93S
WELLSVILLE     LGT RAIN  64  58  80 SE3       29.97S
ROCHESTER      CLOUDY    63  47  55 NE6       29.91F
PENN YAN       CLOUDY    62  58  86 CALM      29.93F
$$

             KEY
       WCI = WIND CHILL INDEX
       VSB = VISIBILITY
       HX  = HEAT INDEX
$$


USA.gov is the U.S. government's official web portal to all federal, state and local government web resources and services.